Flag for Germany Weather past 2 weeks in Gotha, Thuringia, Germany

Now
75 °F

Overcast.


Feels Like: 77 °F
Forecast: 58 / 67 °F
Wind: 3 mph from Northwest

Location: Erfurt-Bindersleben

Current Time: Aug 27, 2015 at 10:27:59 PM

Latest Report: Aug 27, 2015 at 9:00 PM


Visibility: 37 mi

Pressure: 29.78 "Hg

Humidity: 55%

Dew point: 58 °F

Location of GothaLocation

Historic Weather in Gotha — Graph

°F

Gotha temperature yesterday

Maximum temperature yesterday: 77 °F (at 5:00 PM)
Minimum temperature yesterday: 56 °F (at 1:00 AM)
Average temperature yesterday: 67 °F

Past Weeks' High & Low Weather Summary

 TemperatureHumidityPressure
High86 °F (Aug 13, 5:00 PM)100% (Aug 21, 3:00 AM)30.33 "Hg (Aug 21, 3:00 AM)
Low48 °F (Aug 21, 7:00 AM)36% (Aug 21, 5:00 PM)29.67 "Hg (Aug 24, 6:00 PM)
Average65 °F74%29.97 "Hg
* Reported Aug 12 9:00 PM — Aug 27 9:00 PM, Gotha, Weather by CustomWeather, © 2015

Note: Actual official high and low records may vary slightly from our data, if they occured in-between our weather recording intervals... More about our weather records

Advertising

Gotha weather history for previous 24 hours

 ConditionsComfort  
Time TempWeatherWind HumidityBarometerVisibility
9:00 PM
Thu, Aug 27
75 °FOvercast.3 mph55%29.78 "Hg37 mi
8:00 PM78 °FOvercast.5 mph47%29.76 "Hg47 mi
7:00 PM82 °FOvercast.7 mph37%29.75 "Hg47 mi
6:00 PM82 °FPartly sunny.7 mph40%29.77 "Hg47 mi
5:00 PM81 °FOvercast.8 mph39%29.79 "Hg37 mi
4:00 PM80 °FPartly sunny.2 mph47%29.82 "Hg47 mi
3:00 PM76 °FPartly sunny.1 mph51%29.84 "Hg37 mi
2:00 PM75 °FOvercast.7 mph51%29.88 "Hg37 mi
1:00 PM75 °FOvercast.7 mph49%29.88 "Hg43 mi
12:00 PM78 °FPartly sunny.7 mph46%29.88 "Hg47 mi
11:00 AM76 °FPartly sunny.9 mph47%29.88 "Hg47 mi
10:00 AM72 °FPartly sunny.7 mph52%29.89 "Hg47 mi
9:00 AM70 °FPartly sunny.5 mph53%29.89 "Hg47 mi
8:00 AM67 °FOvercast.5 mph58%29.88 "Hg47 mi
7:00 AM67 °FOvercast.5 mph54%29.86 "Hg37 mi
4:00 AM68 °FOvercast.6 mph43%29.86 "Hg34 mi
3:00 AM69 °FOvercast.6 mph43%29.87 "Hg34 mi
2:00 AM66 °FPassing clouds.5 mph51%29.89 "Hg37 mi
1:00 AM68 °FOvercast.7 mph48%29.90 "Hg37 mi
11:00 PM
Wed, Aug 26
67 °FOvercast.5 mph51%29.93 "Hg43 mi
10:00 PM69 °FOvercast.5 mph51%29.93 "Hg47 mi
Weather by CustomWeather, © 2015

See weather overviewHow to use our weather pages